Regional Weather Roundup
Issued by NWS

Home | Current Version | Previous Version | Graphics & Text | Print | Product List | Glossary On
Versions: 1 2 3 4 5 6 7 8 9 10 11 12 13 14 15 16 17 18 19 20 21 22 23 24 25 26 27 28 29 30 31 32 33 34 35 36 37 38 39 40 41 42 43 44 45 46 47 48 49 50
776
ASUS45 KCYS 140110
RWRWY

WYOMING REGIONAL WEATHER ROUNDUP
NATIONAL WEATHER SERVICE CHEYENNE WY
600 PM MST SAT FEB 13 2016

NOTE:  "FAIR" INDICATES FEW OR NO CLOUDS BELOW 12,000 FEET
WITH NO SIGNIFICANT WEATHER AND/OR OBSTRUCTIONS TO VISIBILITY.

WYZ001-140200-
YELLOWSTONE NATIONAL PARK

CITY           SKY/WX    TMP DP  RH WIND       PRES   REMARKS
LK YELLOWSTONE   N/A     25  10  53 W9        30.13R WCI  15
W YELLOWSTONE  NOT AVBL

$$
WYZ002>013-054>058-071-098>099-140200-
NORTHERN WYOMING

CITY           SKY/WX    TMP DP  RH WIND       PRES   REMARKS
JACKSON        CLEAR     30  23  74 S18       30.18R WCI  18
CODY           FAIR      41  10  28 W17G26    30.01S
GREYBULL       MOCLDY    44  18  35 NW18      30.01R
WORLAND        FAIR      39  24  55 NW6       30.03R WCI  35
SHERIDAN       PTCLDY    39  23  52 NW12      29.94S WCI  32
BUFFALO        FAIR      37  22  54 NW17G24   29.97R WCI  27
GILLETTE       FAIR      33  30  88 W12       29.94R WCI  24
HULETT         CLOUDY    34  32  93 W6        29.93R WCI  29
NEWCASTLE      LGT SNOW  32  32 100 NW21G28   29.93R WCI  20

$$
WYZ014>020-022>026-101>103-140200-
CENTRAL WYOMING

CITY           SKY/WX    TMP DP  RH WIND       PRES   REMARKS
BIG PINEY      FAIR      29  20  69 E12       30.19R WCI  19
PINEDALE         N/A     28  19  69 NW9       30.19S WCI  20
DUBOIS         MOCLDY    30  12  47 NW22G37   30.09R WCI  17
LANDER         FAIR      37  21  52 NW8       30.06R WCI  31
RIVERTON       FAIR      39  16  39 NW35G47   30.08R WCI  26
CASPER         CLOUDY    34  26  72 NW16G25   30.04R WCI  24
DOUGLAS        CLOUDY    34  29  82 NW17G28   30.04R WCI  23

$$
WYZ021-027>030-104>119-140200-
SOUTHERN WYOMING

CITY           SKY/WX    TMP DP  RH WIND       PRES   REMARKS
EVANSTON       FAIR      34  23  64 W15       30.25R WCI  24
KEMMERER       FAIR      30  21  69 W23       30.19S WCI  17
FORT BRIDGER   CLEAR     36  28  75 W21G31    30.23R WCI  24
ROCK SPRINGS   FAIR      36  23  59 W26G38    30.15F WCI  24
DIXON          FAIR      34  22  60 W9        30.18R WCI  27
RAWLINS        FAIR      37  23  56 W36G51    30.09R WCI  23
SARATOGA       FAIR      36  25  64 W20G31    30.10R WCI  25
LARAMIE        FAIR      39  14  36 W26G41    30.01R WCI  28
CHEYENNE       FAIR      46  13  26 W22G30    29.96R
TORRINGTON     FAIR      52  22  30 W32G49    29.86R
PINE BLUFFS    FAIR      45  21  39 W9        29.90R

$$




USA.gov is the U.S. government's official web portal to all federal, state and local government web resources and services.